Geneva County Lake Weather Center

Moon Phase Calendar



Geneva County Lake Water Level
Online Cameras

 


      

Current Conditions in Samson
8/10/2022 2:09:18 AM

74°F
Feels Like 75
Clear
Humidity
100%
Pressure
30.15"
Wind
4.6 mph (SE)
Dew Point
74°F
UV Index
0/10 (Low)
Visibility
6 mi

Hourly Forecast

Date & Time Wed, Aug 10
2:00 AM
Wed, Aug 10
3:00 AM
Wed, Aug 10
4:00 AM
Wed, Aug 10
5:00 AM
Wed, Aug 10
6:00 AM
Wed, Aug 10
7:00 AM
Wed, Aug 10
8:00 AM
Wed, Aug 10
9:00 AM
Wed, Aug 10
10:00 AM
Wed, Aug 10
11:00 AM
Wed, Aug 10
12:00 PM
Wed, Aug 10
1:00 PM
Wed, Aug 10
2:00 PM
Wed, Aug 10
3:00 PM
Wed, Aug 10
4:00 PM
Wed, Aug 10
5:00 PM
Wed, Aug 10
6:00 PM
Wed, Aug 10
7:00 PM
Wed, Aug 10
8:00 PM
Wed, Aug 10
9:00 PM
Wed, Aug 10
10:00 PM
Wed, Aug 10
11:00 PM
Thu, Aug 11
12:00 AM
Thu, Aug 11
1:00 AM
Thu, Aug 11
2:00 AM
Thu, Aug 11
3:00 AM
Thu, Aug 11
4:00 AM
Thu, Aug 11
5:00 AM
Thu, Aug 11
6:00 AM
Thu, Aug 11
7:00 AM
Thu, Aug 11
8:00 AM
Thu, Aug 11
9:00 AM
Thu, Aug 11
10:00 AM
Thu, Aug 11
11:00 AM
Thu, Aug 11
12:00 PM
Thu, Aug 11
1:00 PM
Thu, Aug 11
2:00 PM
Thu, Aug 11
3:00 PM
Thu, Aug 11
4:00 PM
Thu, Aug 11
5:00 PM
Thu, Aug 11
6:00 PM
Thu, Aug 11
7:00 PM
Thu, Aug 11
8:00 PM
Thu, Aug 11
9:00 PM
Thu, Aug 11
10:00 PM
Thu, Aug 11
11:00 PM
Fri, Aug 12
12:00 AM
Fri, Aug 12
1:00 AM
Condition
Clear

Clear

Clouds

Clouds

Clouds

Clouds

Clouds

Clouds

Clouds

Clouds

Clouds

Clouds

Clouds

Clouds

Clouds

Clouds

Clouds

Rain

Rain

Rain

Clouds

Clouds

Clouds

Clouds

Clouds

Clouds

Clouds

Clouds

Clouds

Clouds

Clouds

Clouds

Clouds

Clouds

Clouds

Clouds

Rain

Rain

Rain

Rain

Rain

Rain

Rain

Rain

Rain

Clouds

Clouds

Clouds
Temperature 74°F73°F73°F73°F73°F75°F78°F82°F85°F88°F91°F93°F95°F96°F96°F94°F88°F82°F78°F77°F75°F75°F75°F74°F74°F74°F73°F73°F73°F75°F78°F82°F86°F90°F92°F93°F88°F83°F83°F85°F81°F78°F75°F74°F74°F74°F74°F74°F
Feels Like 75°F75°F75°F75°F74°F76°F79°F86°F91°F93°F95°F97°F98°F98°F98°F95°F90°F85°F79°F78°F76°F76°F76°F75°F75°F75°F75°F74°F74°F76°F80°F87°F92°F95°F97°F97°F93°F88°F89°F91°F86°F80°F77°F75°F75°F76°F75°F75°F
Cloudiness 0%4%16%32%50%67%75%81%73%75%68%64%62%71%79%84%82%83%82%79%74%61%52%47%31%51%63%63%59%55%23%39%35%38%38%42%96%98%97%91%87%89%92%95%96%91%82%77%
Visibility 6 mi6 mi6 mi6 mi6 mi6 mi6 mi6 mi6 mi6 mi6 mi6 mi6 mi6 mi6 mi6 mi6 mi6 mi6 mi6 mi6 mi6 mi6 mi6 mi6 mi6 mi6 mi6 mi6 mi6 mi6 mi6 mi6 mi6 mi6 mi6 mi6 mi6 mi6 mi6 mi4 mi6 mi6 mi6 mi6 mi6 mi6 mi6 mi
Precipitation 0%0%0%0%1%2%1%2%3%2%2%2%3%0%1%2%6%26%75%83%79%82%82%83%16%21%22%22%21%21%5%6%7%15%27%35%84%87%76%76%74%88%79%94%92%89%88%85%
Humidity 100%98%96%94%92%87%79%71%62%55%49%42%37%34%33%36%48%62%74%79%85%88%89%91%92%93%94%94%95%91%83%74%63%53%48%45%54%70%69%66%77%83%90%93%93%92%92%93%
Dew Point 74°F73°F72°F71°F70°F71°F71°F72°F71°F70°F69°F67°F65°F63°F63°F63°F66°F68°F69°F70°F71°F71°F71°F71°F71°F71°F71°F71°F71°F72°F73°F73°F72°F71°F69°F68°F69°F72°F72°F72°F73°F73°F72°F72°F72°F72°F72°F71°F
Pressure 30.15"30.15"30.12"30.12"30.12"30.15"30.15"30.15"30.15"30.15"30.12"30.09"30.06"30.03"30"30.03"30.03"30.06"30.06"30.09"30.09"30.09"30.09"30.09"30.06"30.06"30.06"30.06"30.06"30.06"30.09"30.09"30.09"30.06"30.06"30.03"30.03"30"30"29.97"30"30.03"30.03"30.06"30.03"30.03"30.03"30.03"
Wind Speed 4.5 mph4.2 mph3.8 mph3.6 mph3.5 mph3.1 mph3.8 mph4.6 mph4.3 mph4.9 mph5.6 mph5 mph4.5 mph4.8 mph7.9 mph10.4 mph10.4 mph8 mph5.2 mph6.1 mph5.3 mph3.7 mph3 mph3.3 mph2.3 mph2.3 mph1.4 mph0.8 mph1 mph1 mph1.1 mph2.4 mph2.3 mph2.1 mph3.2 mph5.2 mph8.5 mph11.4 mph8.6 mph9.3 mph7.5 mph6.3 mph8.5 mph5.4 mph4.4 mph5.7 mph4.2 mph3.5 mph
Wind
Direction
155°
SSE
166°
SSE
160°
SSE
157°
SSE
155°
SSE
155°
SSE
150°
SSE
157°
SSE
160°
SSE
161°
SSE
168°
SSE
171°
S
164°
SSE
176°
S
227°
SW
217°
SW
212°
SSW
214°
SW
184°
S
154°
SSE
143°
SE
135°
SE
155°
SSE
185°
S
197°
SSW
193°
SSW
209°
SSW
236°
SW
43°
NE
108°
ESE
106°
ESE
122°
ESE
128°
SE
156°
SSE
164°
SSE
173°
S
183°
S
186°
S
192°
SSW
201°
SSW
204°
SSW
230°
SW
257°
WSW
252°
WSW
241°
WSW
244°
WSW
249°
WSW
268°
W

Daily Forecast

Date High Low Precip. Humidity
Today
Aug 10

Rain
96 °F
73 °F
83%
49%
Thursday
Aug 11

Rain
93 °F
73 °F
92%
48%
Friday
Aug 12

Rain
92 °F
73 °F
95%
45%
Saturday
Aug 13

Rain
92 °F
72 °F
58%
43%
Sunday
Aug 14

Rain
93 °F
73 °F
46%
37%
Monday
Aug 15

Clouds
96 °F
72 °F
0%
33%
Tuesday
Aug 16

Rain
97 °F
75 °F
75%
37%
Wednesday
Aug 17

Rain
90 °F
73 °F
70%
54%
Thursday
Aug 18

Clouds
96 °F
73 °F
47%
36%
Friday
Aug 19

Rain
97 °F
74 °F
49%
40%
Saturday
Aug 20

Rain
96 °F
76 °F
66%
41%
Sunday
Aug 21

Rain
96 °F
73 °F
90%
39%
Monday
Aug 22

Rain
96 °F
74 °F
53%
41%
Tuesday
Aug 23

Rain
97 °F
76 °F
50%
37%
Wednesday
Aug 24

Rain
99 °F
75 °F
72%
35%
Thursday
Aug 25

Rain
97 °F
76 °F
69%
40%

Temperature 8-14 Day Outlook



Precipitation 8-14 Day Outlook




Quick Links
Geneva County Lake News
Geneva County Lake Photos
Geneva County Lake Videos




About Us
Contact Us
Site Map
Search Site
Advertise With Us
   
GenevaCounty.LakesOnline.com
THE GENEVA COUNTY LAKE WEBSITE

Copyright 2022, Lakes Online
Privacy    |    Legal